Location: Milevsko
(49.4500°N, 14.3670°E)
Time: 00:37:41
(UTC+01:00)

ISS - Pass Details

Date: 17 July 2018
Orbit: 401 x 408 km, 51.6° (Epoch: 20 November)

Event Time Altitude Azimuth Distance (km) Brightness Sun altitude
Exits shadow 00:17:08 22° 89° (E) 963 -2.1 -18.4°
Drops below altitude 10° 00:18:33 10° 78° (ENE) 1,490 -1.0 -18.4°
Enters shadow 01:29:07 -41° 256° (WSW) 8,884 2.9 -19.2°
Maximum altitude 01:51:55 65° 350° (N) 460 -3.4 -18.7°
